Location: *
(45.9500°N, 9.0833°E)
Time: 05:35:00
(UTC+00:00)

SR - Pass Details

Date: 14 June 2021
Orbit: 577 x 878 km, 66.7° (Epoch: 24 July)

Event Time Altitude Azimuth Distance (km) Brightness Sun altitude
Rises 19:49:15 0° 277° (W) 3,474 ? -5.4°
Reaches altitude 10° 19:53:03 10° 300° (WNW) 2,525 ? -5.9°
Maximum altitude 19:56:12 15° 333° (NNW) 2,192 ? -6.3°
Drops below altitude 10° 19:59:18 10° 6° (N) 2,474 ? -6.6°
Sets 20:02:58 0° 30° (NNE) 3,359 ? -7.1°
